Location: Limerick
(52.6650°N, 8.6230°W)
Time: 20:39:31
(UTC+01:00)

ISS - Pass Details

Date: 28 May 2017
Orbit: 402 x 409 km, 51.6° (Epoch: 25 May)

Event Time Altitude Azimuth Distance (km) Brightness Sun altitude
Rises 00:37:44 0° 270° (W) 2,333 0.2 -15.0°
Reaches altitude 10° 00:39:50 10° 268° (W) 1,471 -0.9 -15.0°
Maximum altitude 00:43:07 75° 183° (S) 426 -4.0 -15.1°
Drops below altitude 10° 00:46:24 10° 98° (E) 1,467 -1.2 -15.2°
Enters shadow 00:47:25 - 97° (E) 1,884 -0.6 -15.3°
